Lakeland Region, FL

12:51 AM EDT on May 01, 2017 (GMT -0400)
Lakeland Linder Regional

Weather History for KLAL - October, 2014

Change the Weather History Date:

Thursday, October 30, 2014

  Actual Average Record
Temperature  
Mean Temperature 72 °F -  
Max Temperature 82 °F 78 °F 89 °F (2009)
Min Temperature 62 °F 61 °F 44 °F (2008)
Cooling Degree Days 7    
Growing Degree Days 22 (Base 50)    
Moisture  
Dew Point 64 °F    
Average Humidity 81    
Maximum Humidity 100    
Minimum Humidity 54    
Precipitation  
Precipitation 0.00 in - - ()
Sea Level Pressure  
Sea Level Pressure 29.95 in    
Wind  
Wind Speed 1 mph (NNW)    
Max Wind Speed 6 mph    
Max Gust Speed -    
Visibility 11 miles    
Events      
Averages and records for this station are not official NWS values.
T = Trace of Precipitation, MM = Missing Value Source: NWS Daily Summary

Daily Weather History Graph

Daily Weather History Graph

Search for Another Location

Airport or City:

Trip Planner

Search our weather history database for the weather conditions in past years. The results will help you decide how hot, cold, wet, or windy it might be!

Date:

Astronomy

Oct. 30, 2014 Rise Set
Actual Time 7:37 AM EDT 6:45 PM EDT
Civil Twilight 7:13 AM EDT 7:09 PM EDT
Nautical Twilight 6:46 AM EDT 7:36 PM EDT
Astronomical Twilight 6:18 AM EDT 8:04 PM EDT
Moon 1:38 PM EDT (10/30) No Moon Set
Length of Visible Light 11h 55m
Length of Day
11h 07m
Waxing Crescent, 45% of the Moon is Illuminated
Oct 30
Waxing Crescent
Oct 30
First Quarter
Nov 6
Full
Nov 14
Last Quarter
Nov 22
New

Hourly Weather History & Observations

Time (EDT) Temp. Heat Index Dew Point Humidity Pressure Visibility Wind Dir Wind Speed Gust Speed Precip Events Conditions
12:35 AM 68.0 °F - 62.6 °F 83% 30.02 in 10.0 mi Calm Calm - N/A   Clear
12:55 AM 68.0 °F - 62.6 °F 83% 30.01 in 10.0 mi Calm Calm - N/A   Clear
1:15 AM 66.2 °F - 62.6 °F 88% 30.01 in 10.0 mi Calm Calm - N/A   Clear
1:35 AM 64.4 °F - 62.6 °F 94% 30.00 in 10.0 mi Calm Calm - N/A   Clear
1:55 AM 66.2 °F - 62.6 °F 88% 30.00 in 10.0 mi Calm Calm - N/A   Clear
2:15 AM 66.2 °F - 62.6 °F 88% 29.99 in 10.0 mi Calm Calm - N/A   Clear
2:35 AM 64.4 °F - 62.6 °F 94% 29.99 in 10.0 mi Calm Calm - N/A   Clear
2:55 AM 64.4 °F - 62.6 °F 94% 29.98 in 10.0 mi Calm Calm - N/A   Clear
3:15 AM 64.4 °F - 62.6 °F 94% 29.97 in 10.0 mi Calm Calm - N/A   Clear
3:35 AM 64.4 °F - 60.8 °F 88% 29.97 in 10.0 mi Calm Calm - N/A   Clear
3:55 AM 64.4 °F - 62.6 °F 94% 29.97 in 10.0 mi Calm Calm - N/A   Clear
4:15 AM 62.6 °F - 62.6 °F 100% 29.97 in 10.0 mi Calm Calm - N/A   Clear
5:10 AM 62.6 °F - 60.8 °F 94% 29.96 in 7.0 mi Calm Calm - N/A   Clear
5:30 AM 62.6 °F - 60.8 °F 94% 29.96 in 10.0 mi Calm Calm - N/A   Clear
5:50 AM 62.6 °F - 60.8 °F 94% 29.96 in 10.0 mi Calm Calm - N/A   Clear
6:50 AM 64.4 °F - 62.6 °F 94% 29.97 in 10.0 mi Calm Calm - N/A   Clear
7:50 AM 66.2 °F - 62.6 °F 88% 29.98 in 10.0 mi Calm Calm - N/A   Mostly Cloudy
8:50 AM 71.6 °F - 66.2 °F 83% 29.99 in 10.0 mi Calm Calm - N/A   Scattered Clouds
9:50 AM 73.4 °F - 66.2 °F 78% 30.00 in 10.0 mi Calm Calm - N/A   Scattered Clouds
10:50 AM 77.0 °F - 66.2 °F 69% 29.99 in 10.0 mi Calm Calm - N/A   Scattered Clouds
11:50 AM 80.6 °F 82.3 °F 64.4 °F 58% 30.00 in 12.0 mi Calm Calm - N/A   Scattered Clouds
12:59 PM 80.6 °F 82.3 °F 64.4 °F 58% 29.95 in 12.0 mi Calm Calm - N/A   Mostly Cloudy
1:50 PM 80.6 °F 82.3 °F 64.4 °F 58% 29.94 in 12.0 mi Calm Calm - N/A   Mostly Cloudy
2:50 PM 80.6 °F 82.3 °F 64.4 °F 58% 29.91 in 12.0 mi West 5.8 mph - N/A   Mostly Cloudy
3:50 PM 80.6 °F 82.3 °F 64.4 °F 58% 29.90 in 15.0 mi Calm Calm - N/A   Mostly Cloudy
4:50 PM 82.4 °F 83.9 °F 64.4 °F 54% 29.89 in 15.0 mi North 4.6 mph - N/A   Mostly Cloudy
5:50 PM 80.6 °F 82.3 °F 64.4 °F 58% 29.88 in 15.0 mi North 4.6 mph - N/A   Mostly Cloudy
6:50 PM 77.0 °F - 66.2 °F 69% 29.89 in 15.0 mi North 4.6 mph - N/A   Mostly Cloudy
7:50 PM 75.2 °F - 66.2 °F 73% 29.89 in 10.0 mi Calm Calm - N/A   Mostly Cloudy
8:50 PM 71.6 °F - 66.2 °F 83% 29.90 in 10.0 mi Calm Calm - N/A   Scattered Clouds
9:50 PM 69.8 °F - 66.2 °F 88% 29.91 in 10.0 mi Calm Calm - N/A   Scattered Clouds
10:15 PM 71.6 °F - 64.4 °F 78% 29.91 in 10.0 mi NNW 4.6 mph - N/A   Overcast
10:35 PM 71.6 °F - 64.4 °F 78% 29.92 in 10.0 mi NNW 5.8 mph - N/A   Overcast
10:55 PM 71.6 °F - 64.4 °F 78% 29.92 in 10.0 mi NNW 3.5 mph - N/A   Overcast
11:15 PM 69.8 °F - 64.4 °F 83% 29.92 in 10.0 mi Calm Calm - N/A   Overcast
11:35 PM 69.8 °F - 64.4 °F 83% 29.91 in 10.0 mi Calm Calm - N/A   Mostly Cloudy
11:55 PM 69.8 °F - 64.4 °F 83% 29.91 in 10.0 mi North 3.5 mph - N/A   Overcast